This is the latest recevied weather packets stored in our database for station/object N4CRH-13. If no packets are shown the sender has not sent any weather packets the latest 10 day(s).
| Time | Temp. | Humidity | Pressure | Rain* | Wind** | Luminosity | Snow |
|---|---|---|---|---|---|---|---|
| 1777490366 | 5.56° C | 88% | 1296.7 hPa | 0 mm | - | 137 W/m² | - |
| 1777490064 | 5.56° C | 90% | 1296.4 hPa | 0 mm | - | 224 W/m² | - |
| 1777489761 | 5° C | 90% | 1296.4 hPa | 0 mm | - | 268 W/m² | - |
| 1777489459 | 5° C | 91% | 1296.7 hPa | 1.27 mm | - | 203 W/m² | - |
| 1777489155 | 5° C | 90% | 1296.9 hPa | 0 mm | - | 105 W/m² | - |
| 1777488852 | 4.44° C | 90% | 1297 hPa | 0 mm | - | 70 W/m² | - |
| 1777488549 | 4.44° C | 90% | 1297.3 hPa | 1.78 mm | - | 37 W/m² | - |
| 1777488247 | 5° C | 89% | 1297 hPa | 1.78 mm | - | 53 W/m² | - |
| 1777487945 | 4.44° C | 87% | 1297 hPa | 1.27 mm | - | 68 W/m² | - |
| 1777487642 | 5° C | 89% | 1297 hPa | 3.05 mm | - | 90 W/m² | - |
| 1777487339 | 5° C | 88% | 1297.3 hPa | 3.05 mm | - | 88 W/m² | - |
| 1777487037 | 5° C | 88% | 1297 hPa | 1.27 mm | - | 105 W/m² | - |
| 1777486732 | 5° C | 86% | 1296.9 hPa | 0 mm | - | 75 W/m² | - |
| 1777486430 | 5° C | 86% | 1296.9 hPa | 1.78 mm | - | 74 W/m² | - |
| 1777486128 | 5.56° C | 84% | 1296.5 hPa | 0 mm | - | 69 W/m² | - |
| 1777485825 | 5.56° C | 83% | 1296.4 hPa | 0 mm | - | 133 W/m² | - |
| 1777485521 | 5.56° C | 82% | 1295.9 hPa | 0 mm | - | 137 W/m² | - |
| 1777485217 | 5.56° C | 79% | 1296 hPa | 0 mm | - | 83 W/m² | - |
| 1777484913 | 5.56° C | 78% | 1296 hPa | 0 mm | - | 52 W/m² | - |
| 1777484611 | 6.11° C | 78% | 1296 hPa | 0 mm | - | 58 W/m² | - |
| 1777484307 | 6.67° C | 75% | 1295.7 hPa | 0 mm | - | 83 W/m² | - |
| 1777484002 | 7.22° C | 73% | 1295.7 hPa | 0 mm | - | 155 W/m² | - |
| 1777483699 | 7.22° C | 73% | 1295.8 hPa | 0 mm | - | 197 W/m² | - |
| 1777483395 | 7.78° C | 71% | 1295.6 hPa | 0 mm | - | 319 W/m² | - |
| 1777483090 | 8.89° C | 69% | 1295.9 hPa | 0 mm | - | 429 W/m² | - |
* Rain latest hour (hover to see other rain measurements)
** Current wind speed in m/s (hover to see current wind gust speed)